Lid_Strength_Index
0 1 1 1 1 1 1 1 0 0 0 0 0 0 0 1 1 0 1 1 1 1
0 1 1 0 0 1 1 1 0 0 0 0 0 0 0 1 1 1 1 1 1 1
0 0 0 0 1 1 0 0 0 0 0 1 0 0 0 1 0 1 1 1 1 1
0 0 0 1 0 0 0 0 0 0 1 1 1 0 1 1 1 1 1 1 1 1
0 0 1 1 0 0 1 0 1 0 1 1 1 1 1 1 1 1 2 1 1 1
1 1 1 1 1 0 0 1 1 1 1 1 1 1 1 1 1 1 1 1 1 1
1 1 1 1 0 1 1 1 1 1 1 1 1 1 1 1 1 1 1 1 1 1
1 1 1 1 1 1 1 1 1 1 1 1 1 1 1 1 1 1 1 1 1 0
1 1 1 1 1 1 1 1 1 1 1 1 1 7 7 2 1 1 1 2 1 1
1 2 2 1 1 1 2 1 1 1 1 1 1 10 10 8 1 1 1 1 1 1
2 2 3 1 2 1 1 2 2 2 1 1 1 11 11 8 1 1 1 1 1 1
3 3 3 2 2 2 2 2 2 2 2 2 3 11 11 5 1 1 1 1 0 1
5 4 2 2 2 2 2 2 2 2 1 4 2 13 11 5 1 2 2 1 1 9
5 3 2 2 1 2 2 2 2 2 2 1 2 6 10 11 1 2 2 2 2 1